Location: Artiguedieu
(43.5000°N, 0.5454°E)
Time: 08:52:53
(UTC+00:00)

Explorer 7 - Pass Details

Date: 01 August 2021
Orbit: 484 x 676 km, 50.3° (Epoch: 22 September)

Event Time Altitude Azimuth Distance (km) Brightness Sun altitude
Rises 11:55:30 0° 289° (WNW) 2,766 10.3 64.3°
Reaches altitude 10° 11:58:10 10° 272° (W) 1,904 9.7 64.4°
Maximum altitude 12:01:20 20° 226° (SW) 1,414 9.5 64.4°
Drops below altitude 10° 12:04:38 10° 179° (S) 1,984 10.2 64.4°
Sets 12:07:30 0° 163° (SSE) 2,922 10.9 64.4°
